Regional Weather Roundup
Issued by NWS

Home | Current Version | Previous Version | Graphics & Text | Print | Product List | Glossary On
Versions: 1 2 3 4 5 6 7 8 9 10 11 12 13 14 15 16 17 18 19 20 21 22 23 24 25 26 27 28 29 30 31 32 33 34 35 36 37 38 39 40 41 42 43 44 45 46 47 48 49 50
000
ASUS43 KOAX 302302
RWRNE

WEATHER ROUNDUP FOR NEBRASKA
NATIONAL WEATHER SERVICE OMAHA NE
600 PM CDT SAT AUG 30 2014

NOTES: SATELLITE DATA IS BEING USED TO AUGMENT CLOUD COVER ABOVE
       12000 FEET.
       "FAIR" INDICATES FEW OR NO CLOUDS BELOW 12,000 FEET WITH NO
       SIGNIFICANT WEATHER AND/OR OBSTRUCTIONS TO VISIBILITY.

  * THESE STATIONS DO NOT REPORT WEATHER SUCH AS RAIN...SNOW OR FOG.

NEZ001>004-019>022-054>056-310000-
NEBRASKA PANHANDLE

CITY           SKY/WX    TMP DP  RH WIND       PRES   REMARKS
SCOTTSBLUFF    MOSUNNY   86  46  24 SW17      29.78S
ALLIANCE       SUNNY     88  47  24 S23G30    29.78F
CHADRON        SUNNY     93  44  18 S14       29.68F
KIMBALL        MOSUNNY   83  40  21 S13G18    29.87R
SIDNEY         SUNNY     86  40  19 S13       29.86F
$$

NEZ057>060-069>072-079>082-310000-
SOUTHWEST NEBRASKA

CITY           SKY/WX    TMP DP  RH WIND       PRES   REMARKS
NORTH PLATTE   SUNNY     84  60  44 SE8       29.82F
IMPERIAL       SUNNY     89  49  25 S15       29.83F
LEXINGTON      SUNNY     84  65  53 SE12      29.84F
MCCOOK         SUNNY     91  54  28 S13       29.82F
OGALLALA       SUNNY     86  53  31 S10       29.81F
$$

NEZ005>010-023>029-035>040-094-310000-
NORTH CENTRAL NEBRASKA

CITY           SKY/WX    TMP DP  RH WIND       PRES   REMARKS
VALENTINE      SUNNY     85  60  42 SE20G30   29.77F
AINSWORTH      SUNNY     80  62  53 SE17      29.81F
BROKEN BOW     SUNNY     81  65  58 S15G26    29.85F
O`NEILL        SUNNY     80  63  56 S13G18    29.84F
ORD            SUNNY     80  64  58 S10       29.84F
THEDFORD       SUNNY     85  59  41 S20       29.83S
$$

NEZ041-046>049-061>064-073>077-083>087-310000-
SOUTH CENTRAL NEBRASKA

CITY           SKY/WX    TMP DP  RH WIND       PRES   REMARKS
GRAND ISLAND   SUNNY     82  66  58 SE13      29.87F
AURORA         SUNNY     81  65  58 S8        29.87F
HASTINGS       SUNNY     83  61  47 S8        29.86F
HEBRON         SUNNY     85  59  42 S8        29.87F
HOLDREGE       SUNNY     84  63  49 CALM      29.85F
KEARNEY *      SUNNY     82  64  54 SE13      29.87S
$$

NEZ011>018-030>034-042>045-310000-
NORTHEAST NEBRASKA

CITY           SKY/WX    TMP DP  RH WIND       PRES   REMARKS
NORFOLK        SUNNY     79  62  56 SE10      29.86F
ALBION         SUNNY     78  63  60 SE9       29.87F
BLAIR          SUNNY     81  62  52 CALM      29.88S
FREMONT        SUNNY     81  58  45 S5        29.88S
TEKAMAH        SUNNY     80  63  55 S5        29.87S
WAYNE          SUNNY     76  66  71 SE8       29.87F
$$

NEZ050>053-065>068-078-088>093-310000-
SOUTHEAST NEBRASKA

CITY           SKY/WX    TMP DP  RH WIND       PRES   REMARKS
LINCOLN        SUNNY     85  63  47 S9        29.87S
OMAHA EPPLEY   MOSUNNY   80  64  58 SE7       29.87F
BEATRICE       SUNNY     85  64  48 S5        29.86F
FALLS CITY     SUNNY     86  68  54 E5        29.86F
NEBRASKA CITY  SUNNY     82  64  55 NE3       29.87F
PLATTSMOUTH    SUNNY     81  59  47 CALM      29.88S
$$

NEZ044-045-051>053-067-310000-
OMAHA AREA

CITY           SKY/WX    TMP DP  RH WIND       PRES   REMARKS
OMAHA EPPLEY   MOSUNNY   80  64  58 SE7       29.87F
BLAIR          SUNNY     81  62  52 CALM      29.88S
FREMONT        SUNNY     81  58  45 S5        29.88S
MILLARD        SUNNY     82  66  58 S5        29.87S
OFFUTT AFB     SUNNY     81  64  57 VRB5      29.87F
PLATTSMOUTH    SUNNY     81  59  47 CALM      29.88S
WAHOO          FAIR      82  60  48 E5        29.87F
$$



USA.gov is the U.S. government's official web portal to all federal, state and local government web resources and services.